EW0597 Weather Reports


time (UTC)temp
F
wind
direction
speed
knots
gust
knots
rain 1hr
in
rain 24hr
in
rain mn
in
humidity
%
barometer
mb
20260506021508 60 272 0.0 6.1 0.00 0.01 0.01 77 1015.7
20260506020009 60 278 0.9 4.3 0.00 0.01 0.01 76 1015.7
20260506014515 60 329 0.9 7.0 0.00 0.01 0.01 75 1015.6
20260506013007 60 292 0.0 4.3 0.00 0.01 0.01 75 1015.7
20260506011513 60 267 0.9 2.6 0.00 0.01 0.01 75 1015.6
20260506010010 61 249 0.9 5.2 0.00 0.01 0.01 75 1015.5
20260506004507 61 277 0.0 5.2 0.00 0.01 0.01 75 1015.5
20260506003005 61 289 0.0 4.3 0.00 0.01 0.01 75 1015.5
20260506001503 61 348 0.0 7.8 0.00 0.01 0.01 74 1015.3
20260506000004 61 265 0.0 5.2 0.00 0.01 0.01 74 1015.2
20260505234508 62 265 0.0 7.0 0.00 0.01 0.01 74 1015.2
20260505233002 63 205 1.7 5.2 0.00 0.01 0.01 72 1015.2
20260505231503 63 317 0.0 3.5 0.00 0.01 0.01 70 1015.2
20260505230002 64 227 0.0 3.5 0.00 0.01 0.01 69 1015.2
20260505224502 64 268 0.0 2.6 0.00 0.01 0.01 68 1015.1
20260505223113 64 218 0.0 2.6 0.00 0.01 0.01 67 1015.3
20260505221603 64 240 0.0 3.5 0.00 0.01 0.01 68 1015.3
20260505220100 64 277 0.0 5.2 0.00 0.01 0.01 68 1015.4
20260505214603 64 329 0.0 3.5 0.00 0.01 0.01 69 1015.4
20260505213056 64 283 0.0 2.6 0.00 0.01 0.01 69 1015.7
20260505211620 64 309 0.0 5.2 0.00 0.01 0.01 69 1015.7
20260505210055 64 300 0.0 1.7 0.00 0.01 0.01 68 1015.6
20260505204555 64 355 0.9 3.5 0.00 0.01 0.01 68 1015.6
20260505203113 64 328 0.0 3.5 0.00 0.01 0.01 67 1015.6
20260505201648 63 355 0.0 7.8 0.00 0.01 0.01 69 1015.7
20260505200045 63 298 0.0 5.2 0.00 0.01 0.01 70 1015.9
20260505194543 62 275 0.9 4.3 0.00 0.01 0.01 72 1016.0
20260505193038 61 288 0.0 3.5 0.00 0.01 0.01 76 1016.2
20260505191543 61 263 0.0 3.5 0.00 0.01 0.01 78 1016.2
20260505190036 60 268 0.0 3.5 0.00 0.01 0.01 77 1016.2
20260505184544 60 262 0.0 4.3 0.00 0.01 0.01 78 1016.0
20260505183038 60 319 0.0 4.3 0.00 0.01 0.01 79 1016.2
20260505181528 59 274 0.0 6.1 0.00 0.01 0.01 81 1016.1
20260505180027 58 261 0.0 0.9 0.00 0.01 0.01 82 1016.1
20260505174522 58 262 0.0 0.9 0.00 0.01 0.01 82 1016.0
20260505173019 58 296 0.0 1.7 0.00 0.01 0.01 80 1015.8
20260505171518 57 263 0.0 0.0 0.00 0.01 0.01 79 1015.7
20260505170023 57 263 0.0 0.0 0.00 0.01 0.01 81 1015.7
20260505164514 57 263 0.0 1.7 0.00 0.01 0.01 82 1015.6
20260505163013 56 263 0.0 0.9 0.00 0.01 0.01 84 1015.6
20260505161511 56 265 0.0 0.0 0.00 0.01 0.01 85 1015.6
20260505153007 54 265 0.0 0.0 0.00 0.01 0.01 90 1015.3
20260505151504 54 265 0.0 0.0 0.00 0.01 0.01 91 1015.2
20260505140125 52 265 0.0 0.0 0.00 0.01 0.01 91 1014.9
20260505124601 52 265 0.0 0.0 0.00 0.01 0.01 91 1014.8
20260505123057 52 265 0.0 0.0 0.00 0.01 0.01 91 1014.9
20260505121555 52 265 0.0 0.0 0.00 0.01 0.01 91 1014.8
20260505120107 52 265 0.0 0.0 0.00 0.01 0.01 91 1014.6
20260505114557 52 265 0.0 0.0 0.00 0.01 0.01 91 1014.8
20260505113102 52 265 0.0 0.0 0.00 0.01 0.01 91 1014.9
20260505111554 52 265 0.0 0.0 0.01 0.01 0.01 91 1014.9
20260505101554 52 266 0.0 0.0 0.00 0.00 0.00 89 1014.8
20260505100045 52 265 0.0 0.0 0.00 0.00 0.00 88 1014.9
20260505094547 52 265 0.0 0.0 0.00 0.00 0.00 87 1014.9
20260505093051 52 266 0.0 0.9 0.00 0.00 0.00 86 1015.0
20260505091539 53 266 0.0 0.0 0.00 0.00 0.00 83 1014.9
20260505090037 53 266 0.0 0.0 0.00 0.00 0.00 82 1015.2
20260505084536 53 266 0.0 0.0 0.00 0.00 0.00 82 1015.4
20260505083039 53 266 0.0 2.6 0.00 0.00 0.00 81 1015.6
20260505081531 54 269 0.0 1.7 0.00 0.00 0.00 80 1015.7
20260505080034 54 288 0.0 1.7 0.00 0.00 0.00 78 1015.7
20260505074529 54 289 0.0 2.6 0.00 0.00 0.00 77 1015.8
20260505073028 54 304 0.9 5.2 0.00 0.00 0.00 78 1015.8
20260505071525 54 298 0.0 2.6 0.00 0.00 0.00 81 1015.7
20260505070026 54 327 0.0 3.5 0.00 0.00 0.00 81 1015.4
20260505064522 54 298 0.0 0.0 0.00 0.00 0.00 82 1015.3
20260505063021 54 298 0.0 0.9 0.00 0.00 0.00 81 1015.3
20260505061523 54 298 0.0 1.7 0.00 0.00 0.00 81 1015.1
20260505060020 55 286 0.0 4.3 0.00 0.00 0.00 80 1015.1
20260505054522 55 285 0.0 3.5 0.00 0.00 0.00 81 1015.2
20260505053024 55 333 0.0 5.2 0.00 0.00 0.00 81 1015.4
20260505051519 56 342 0.9 7.0 0.00 0.00 0.00 82 1015.5
20260505041516 56 308 0.0 3.5 0.00 0.00 0.00 80 1015.1
20260505040030 56 343 0.0 6.1 0.00 0.00 0.00 79 1014.9
20260505034518 56 347 0.0 4.3 0.00 0.00 0.00 78 1014.8
20260505033015 57 319 0.0 5.2 0.00 0.00 0.00 76 1014.5
20260505031512 57 325 0.9 7.0 0.00 0.00 0.00 75 1014.4
20260505030016 57 38 0.0 3.5 0.00 0.00 0.00 73 1014.3
20260505024511 58 315 0.0 1.7 0.00 0.00 0.00 70 1014.3
20260505023012 59 273 0.0 3.5 0.00 0.00 0.00 68 1014.2